Simultaneous Nadir Overpasses (SNOs) Predictions

Prediction of SNOs between GOES-17 and METOP-C Satellite Orbit:

Table of predicted SNOs for the next 14.0 days since TLE Epoch: 4/17/2021
Index Date Time (GOES-17) GOES-17 Lat,Lon METOP-C Lat,Lon Distance(km) Time Diff (sec)
1 04/17/2021 18:24:13 0.04,-137.19 -0.81,-133.53 417.79 80
2 04/19/2021 06:45:52 -0.04,-137.17 -0.27,-138.12 108.15 80
3 04/20/2021 06:22:33 -0.03,-137.16 0.89,-133.14 459.75 80
4 04/21/2021 18:41:25 0.03,-137.15 0.15,-137.69 61.43 80
5 04/24/2021 06:42:26 -0.03,-137.11 -0.07,-137.29 20.76 80
6 04/26/2021 18:40:37 0.03,-137.08 -0.01,-136.86 24.53 80
7 04/29/2021 06:38:58 -0.02,-137.02 0.07,-136.46 62.93 80
8 04/30/2021 18:55:10 0.02,-136.98 0.94,-141.02 460.70 80
